Regional Weather Roundup
Issued by NWS

Home | Current Version | Previous Version | Text Only | Print | Product List | Glossary Off
Versions: 1 2 3 4 5 6 7 8 9 10 11 12 13 14 15 16 17 18 19 20 21 22 23 24 25 26 27 28 29 30 31 32 33 34 35 36 37 38 39 40 41 42 43 44 45 46 47 48 49 50

000
ASUS43 KMPX 032201
RWRMN
WEATHER ROUNDUP FOR MINNESOTA
NATIONAL WEATHER SERVICE TWIN CITIES/CHANHASSEN MN
400 PM CST SAT DEC 03 2016


NOTE: "FAIR" INDICATES FEW OR NO CLOUDS BELOW 12,000 FEET WITH NO
SIGNIFICANT WEATHER AND/OR OBSTRUCTIONS TO VISIBILITY. N/A MEANS
CURRENT SKY AND/OR WEATHER CONDITIONS ARE NOT AVAILABLE.

MNZ060>063-068>070-032300-
   Twin Cities Metro

CITY           SKY/WX    TMP DP  RH WIND       PRES   REMARKS
TWIN CITIES    MOCLDY    31  21  66 SE7       30.24S WCI  24
ST PAUL        PTCLDY    30  22  72 SE9       30.26R WCI  22
CRYSTAL        CLOUDY    31  19  61 SE9       30.22S WCI  23
BLAINE         PTCLDY    34  23  64 SE8       30.23R WCI  27
LAKEVILLE      CLOUDY    28  25  86 SE6       30.22F WCI  22
EDEN PRAIRIE   CLOUDY    33  22  63 SE8       30.21F WCI  26
SOUTH ST PAUL  MOCLDY    31  22  66 SE5       30.24F WCI  27
LAKE ELMO      FAIR      30  23  74 SE7       30.25S WCI  23
$$
MNZ001>005-007-008-013>017-022>024-027-028-032300-
   Northwest Minnesota

CITY           SKY/WX    TMP DP  RH WIND       PRES   REMARKS
BEMIDJI        CLEAR     24  18  79 SE9       30.09F WCI  14
HALLOCK        MOCLDY    28  25  86 S14       30.04F WCI  17
ROSEAU         CLOUDY    28  21  74 S12       30.09F WCI  18
WARROAD        CLOUDY    27  21  80 SE13      30.10F WCI  16
THIEF RVR FALL CLEAR     27  21  78 SE12      30.07F WCI  17
CROOKSTON      CLEAR     30  25  80 S13       30.07S WCI  20
FOSSTON        CLEAR     27  19  74 SE8       30.07F WCI  18
DETROIT LAKES  PTCLDY    30  23  74 SE17      30.09S WCI  18
MOORHEAD       CLOUDY    30  27  86 S17G24    30.07S WCI  18
PARK RAPIDS    PTCLDY    26  16  65 SE13      30.12R WCI  15
$$
MNZ006-009>011-018-025>026-032300-
   North Central Minnesota

CITY           SKY/WX    TMP DP  RH WIND       PRES   REMARKS
BAUDETTE       CLOUDY    25  19  78 S10       30.13R WCI  15
FLAG ISLAND    CLOUDY    27  21  80 SE17      30.09F WCI  14
INTL FALLS     CLOUDY    27  19  72 S6        30.16R WCI  20
WASKISH        CLOUDY    27  21  80 SE7       30.13S WCI  19
BIG FORK       CLOUDY    27  19  74 SE6       30.14F WCI  20
LONGVILLE      CLEAR     25  19  80 SE8       30.14S WCI  16
GRAND RAPIDS   CLOUDY    27  20  75 SE7       30.16F WCI  19
CRANE LAKE     CLOUDY    27  19  74 S5        30.19F WCI  21
ORR            CLOUDY    27  18  69 CALM      30.14S
COOK           CLOUDY    27  19  74 SE6       30.17S WCI  20
$$
MNZ012-019>021-037-032300-
   Northeast Minnesota

CITY           SKY/WX    TMP DP  RH WIND       PRES   REMARKS
DULUTH         CLOUDY    29  22  75 SE7       30.17F WCI  22
ELY            CLOUDY    27  25  93 SE3       30.18S
HIBBING        CLOUDY    26  18  71 SE12      30.16F WCI  16
EVELETH        MOCLDY    28  20  70 S7        30.18S WCI  21
DULUTH HARBOR  CLOUDY    34  23  64 S3        30.23F
TWO HARBORS    CLOUDY    32  25  74 S3        30.18F
SILVER BAY     CLOUDY    30  25  80 CALM      30.19S
GRAND MARAIS     N/A     34  27  75 S3        30.23F
G MARAIS ARPRT CLOUDY    27  19  74 S5        30.18S WCI  21
$$
MNZ029>031-032-039>041-046>048-054>057-064-032300-
   West Central Minnesota

CITY           SKY/WX    TMP DP  RH WIND       PRES   REMARKS
FERGUS FALLS   MOCLDY    30  25  80 SE16G23   30.13S WCI  19
WHEATON        CLOUDY   N/A N/A N/A SE20G25   30.09S
MORRIS         MOCLDY    32  28  86 SE17      30.10S WCI  21
ALEXANDRIA     LGT SNOW  30  25  81 SE15      30.12S WCI  19
ELBOW LAKE     FLURRIES  30  27  87 E17       30.10F WCI  18
WADENA         PTCLDY    27  19  74 SE12      30.11S WCI  16
GLENWOOD       LGT SNOW  28  27  93 SE10      30.13F WCI  19
APPLETON       CLOUDY    36  28  75 SE10      30.11S
BENSON         CLOUDY    32  27  80 S13G18    30.13S WCI  22
ORTONVILLE     CLOUDY    34  28  80 SE14G20   30.08S WCI  24
MADISON        CLOUDY    37  36  93 SE9       30.10S
WILLMAR        CLOUDY    34  28  80 SE14      30.16S WCI  24
$$
MNZ033>034-036-042>043-049>051-058-059-032300-
   Central Minnesota

CITY           SKY/WX    TMP DP  RH WIND       PRES   REMARKS
ST CLOUD       CLOUDY    30  22  72 SE12      30.19S WCI  20
PAYNESVILLE    CLOUDY    31  26  80 SE10G17   30.16F WCI  22
AITKIN         CLOUDY    30  19  64 S9        30.16R WCI  22
PINE RIVER     PTCLDY    27  19  74 SE9       30.18R WCI  17
BRAINERD       CLOUDY    28  20  71 S12G18    30.18R WCI  18
STAPLES        CLOUDY    27  18  69 SE7       30.14S WCI  19
LONG PRAIRIE   CLOUDY    30  23  74 SE13      30.15S WCI  20
LITTLE FALLS   PTCLDY    28  19  69 SE8       30.18S WCI  20
LITCHFIELD     CLOUDY    32  27  80 SE8       30.18F WCI  25
BUFFALO        CLOUDY    31  21  66 SE6       30.22S WCI  25
MAPLE LAKE     CLOUDY    32  25  76 SE8       30.21S WCI  25
$$
MNZ037-044-045-052-053-032300-
   East Central Minnesota

CITY           SKY/WX    TMP DP  RH WIND       PRES   REMARKS
PRINCETON      PTCLDY    30  21  69 SE6       30.21S WCI  24
MORA           CLOUDY    32  23  69 SE7       30.22R WCI  26
CAMBRIDGE      CLOUDY    32  21  64 SE7       30.21R WCI  26
RUSH CITY      MOCLDY    30  21  69 S9        30.23R WCI  22
MOOSE LAKE     CLOUDY    30  21  69 S5        30.18S WCI  25
HINCKLEY       CLOUDY    32  23  69 SE6       30.21R WCI  26
CLOQUET        CLOUDY    28  19  69 S3        30.18S
MCGREGOR       CLOUDY    30  21  69 S8        30.17S WCI  23
$$
MNZ071>073-080-081-089-090-097-098-032300-
   Southwest Minnesota

CITY           SKY/WX    TMP DP  RH WIND       PRES   REMARKS
MONTEVIDEO     CLOUDY    34  30  86 S9        30.14F WCI  26
GRANITE FALLS  CLOUDY    37  33  86 SE9       30.15S
CANBY          CLOUDY    37  32  83 CALM      30.11S
MARSHALL       CLOUDY    37  31  78 S10       30.12S
REDWOOD FALLS  CLOUDY    35  29  78 SE13      30.16R WCI  26
OLIVIA         CLOUDY    34  30  86 SE12      30.16R WCI  25
PIPESTONE      LGT SNOW  34  32  93 S13       30.08F WCI  25
WINDOM         CLOUDY    37  32  81 S9        30.14F
WORTHINGTON    LGT SNOW  33  31  92 S20G25    30.13F FOG     WCI  21
JACKSON        MIX PCPN  34  32  93 S12G18    30.16F WCI  25
TRACY          CLOUDY    37  32  84 S12G17    30.12F
SLAYTON        CLOUDY    33  31  92 S12G22    30.13S FOG     WCI  25
$$
MNZ065>067-074>077-082>085-091>093-032300-
   South Central Minnesota

CITY           SKY/WX    TMP DP  RH WIND       PRES   REMARKS
MANKATO        PTCLDY    32  27  81 SE10      30.21S WCI  24
NEW ULM        CLOUDY    34  27  75 SE10      30.18S WCI  26
ST JAMES       CLOUDY    36  30  80 SE9       30.19F
FAIRMONT       MIX PCPN  36  32  85 S17       30.18F
GLENCOE        CLOUDY    33  28  83 SE7       30.19F WCI  27
FARIBAULT      MOCLDY    32  25  74 SE6       30.22F WCI  26
OWATONNA       CLOUDY    32  25  74 SE7       30.22S WCI  26
WASECA         CLOUDY    32  28  86 SE8       30.22S WCI  25
ALBERT LEA     PTCLDY    37  28  70 S6        30.22S
$$
MNZ078>079-086>088-094>096-032300-
   Southeast Minnesota

CITY           SKY/WX    TMP DP  RH WIND       PRES   REMARKS
ROCHESTER      CLOUDY    31  24  75 S6        30.24S WCI  25
RED WING       CLOUDY    32  19  59 S3        30.25F
STANTON        CLOUDY    32  24  72 SE6       30.22F WCI  26
DODGE CENTER   CLOUDY    30  25  80 SE7       30.23S WCI  23
WINONA         CLOUDY    34  25  69 CALM      30.28S
AUSTIN         CLOUDY    32  27  80 CALM      30.23S
PRESTON        CLOUDY    31  22  69 W5        30.26R WCI  26
$$
ABBREVIATIONS USED IN REMARKS
   TC - TEMPERATURES IN CELSIUS
  WCI - WIND CHILL INDEX
   HX - HEAT INDEX
  VSB - VISIBILITY
$$




USA.gov is the U.S. government's official web portal to all federal, state and local government web resources and services.